#timestamp,LO_Frequency,Hit,StdDev 
1634713215.1,286047000.7,N
1634713216.0,286047000.7,N
1634713235.8,286046998.3,N
1634713255.7,286046999.1,N
1634713275.5,286046999.1,N
1634713295.3,286046998.4,N
1634713315.2,286046997.0,N
1634713335.9,286046996.5,N
1634713355.7,286046999.6,N
1634713375.6,286046999.3,N
1634713395.4,286046998.7,N
1634713415.2,286046998.4,N
1634713435.1,286046996.5,N
1634713436.0,286046996.5,N
1634713455.8,286046999.6,N
1634713475.6,286046997.4,N
1634713495.5,286046997.7,N
1634713515.3,286046997.4,N
1634713535.1,286047001.1,N
1634713555.9,286046999.3,N
1634713575.7,286047001.2,N
1634713595.5,286046998.2,N
1634713615.4,286047001.1,N
1634713635.2,286046996.5,N
1634713655.0,286046999.4,N
1634713655.9,286046999.4,N
1634713675.8,286047002.3,N
1634713695.6,286046999.7,N
1634713715.4,286047001.2,N
1634713735.3,286047001.7,N
1634713755.1,286047002.7,N
1634713756.0,286047002.7,N
1634713775.8,286047000.8,N
1634713795.7,286047000.8,N
1634713815.5,286046998.7,N
1634713835.3,286046999.1,N
1634713855.2,286046998.6,N
1634713875.0,286046999.4,N
1634713875.9,286046999.4,N
1634713895.7,286046999.3,N
1634713915.6,286046997.3,N
1634713935.4,286046998.3,N
1634713955.2,286046998.8,N
1634713975.1,286046997.7,N
1634713976.0,286046997.7,N
1634713995.8,286046995.2,N
1634714015.6,286046997.0,N
1634714035.5,286046996.8,N
1634714055.3,286047000.7,N
1634714075.1,286047001.2,N
1634714095.9,286046996.7,N
1634714115.7,286046997.6,N
1634714135.5,286046997.5,N
1634714155.4,286046995.0,N
1634714175.2,286046997.8,N
1634714195.0,286046997.8,N
1634714196.0,286046997.8,N
1634714215.8,286046997.7,N
1634714235.6,286046999.1,N
1634714255.5,286046997.0,N
1634714275.3,286046997.7,N
1634714295.1,286046996.7,N
1634714315.9,286046996.8,N
1634714335.7,286047002.7,N
1634714355.5,286047002.8,N
1634714375.4,286047000.0,N
1634714395.2,286046999.9,N
1634714415.0,286047001.2,N
1634714415.9,286047001.2,N
1634714435.8,286046998.1,N
1634714455.6,286046999.4,N
1634714475.4,286046998.8,N
1634714495.3,286047001.2,N
1634714515.1,286046999.6,N
1634714516.0,286046999.6,N
1634714535.8,286046998.5,N
1634714555.7,286047001.4,N
1634714575.5,286046999.9,N
1634714595.3,286047000.6,N
1634714615.2,286047000.7,N
1634714635.9,286047000.0,N
1634714655.7,286047002.9,N
1634714675.6,286047001.8,N
1634714695.4,286047001.9,N
1634714715.2,286047002.5,N
1634714735.1,286047001.0,N
1634714736.0,286047001.0,N
1634714755.8,286047001.0,N
1634714775.6,286047000.6,N
1634714795.5,286046999.7,N
1634714815.3,286047002.2,N
1634714835.1,286047004.3,N
1634714855.9,286047001.6,N
1634714875.7,286047000.1,N
1634714895.5,286047000.5,N
1634714915.4,286047000.7,N
1634714935.2,286047002.7,N
1634714955.0,286047000.9,N
1634714955.9,286047000.9,N
1634714975.8,286046999.7,N
1634714995.6,286047000.1,N
1634715015.4,286046999.9,N
1634715035.3,286046999.7,N
1634715055.1,286047002.7,N
1634715075.8,286047002.7,N
1634715095.7,286047001.4,N
1634715115.5,286047004.0,Y
1634715135.3,286047002.0,P
1634715155.2,286047003.9,P
1634715175.0,286047001.5,N
1634715175.9,286047001.5,N
1634715195.8,286047001.9,N
1634715215.6,286047002.5,N
1634715235.4,286046999.7,N
1634715255.3,286047001.5,N
1634715275.1,286047001.4,N
1634715276.0,286047001.4,N
1634715295.8,286047002.2,N
1634715315.7,286047002.7,N
1634715335.5,286047002.1,N
1634715355.3,286047001.7,N
1634715375.2,286047001.5,N
1634715395.9,286047002.4,N
1634715415.7,286047002.4,N
1634715435.6,286047002.6,Y
1634715455.4,286047002.4,P
1634715475.2,286047002.7,P
1634715495.1,286047000.7,N
1634715496.0,286047000.7,N
1634715515.8,286047000.2,N
1634715535.6,286047002.3,N
1634715555.5,286047002.4,N
1634715575.3,286047000.3,N
1634715595.1,286046999.9,N
1634715615.9,286047002.1,N
1634715635.7,286047001.3,N
1634715655.5,286047002.8,N
1634715675.4,286047002.0,N
1634715695.2,286047002.3,N
1634715715.0,286047004.1,Y
1634715715.9,286047004.1,P
1634715735.8,286047002.3,N
1634715755.6,286047000.5,N
1634715775.4,286047000.5,N
1634715795.3,286046998.6,N
1634715815.1,286046998.6,N
1634715835.8,286047000.3,N
1634715855.7,286046999.9,N
1634715875.5,286047000.4,N
1634715895.3,286047001.6,N
1634715915.2,286047002.3,N
1634715935.0,286047001.6,N
1634715935.9,286047001.6,N
1634715955.7,286046999.8,N
1634715975.6,286047001.8,N
1634715995.4,286047001.9,N
1634716015.2,286047002.1,N
1634716035.1,286047003.3,N
1634716036.0,286047003.3,N
1634716055.8,286047003.2,N
1634716075.6,286047000.0,N
1634716095.5,286047004.3,N
1634716115.3,286047001.9,N
1634716135.1,286047001.4,N
1634716155.9,286047001.9,N
1634716175.7,286047002.1,N
1634716195.5,286047002.6,N
1634716215.4,286047002.1,N
1634716235.2,286047002.8,N
1634716255.0,286047000.6,N
1634716256.0,286047000.6,N
1634716275.8,286047000.7,N
1634716295.6,286046998.5,N
1634716315.5,286047002.3,N
1634716335.3,286047002.3,N
1634716355.1,286046999.8,N
1634716375.9,286047002.5,N
1634716395.7,286047002.3,N
1634716415.5,286047002.8,N
1634716435.4,286047000.5,N
1634716455.2,286046999.7,N
1634716475.0,286047000.5,N
1634716475.9,286047000.5,N
1634716495.8,286046998.6,N
1634716515.6,286047000.0,N
1634716535.4,286047000.9,N
1634716555.3,286047001.1,N
1634716575.1,286047000.4,N
1634716576.0,286047000.4,N
1634716595.8,286047002.1,N
1634716615.7,286047002.8,N
1634716635.5,286047004.0,Y
1634716655.3,286047002.8,P
1634716675.2,286047000.2,N
1634716695.9,286047002.3,N
1634716745.8,286047000.5,E
1634716755.7,286046998.1,N
1634716775.5,286046999.1,P
1634716795.3,286046996.6,P
